Regional Weather Roundup
Issued by NWS

Home | Current Version | Previous Version | Text Only | Print | Product List | Glossary On
Versions: 1 2 3 4 5 6 7 8 9 10 11 12 13 14 15 16 17 18 19 20 21 22 23 24 25 26 27 28 29 30 31 32 33 34 35 36 37 38 39 40 41 42 43 44 45 46 47 48 49 50
000
ASUS43 KDTX 220810
RWRMI
MICHIGAN HOURLY REGIONAL WEATHER ROUNDUP
NATIONAL WEATHER SERVICE DETROIT/PONTIAC MI
400 AM EDT TUE AUG 22 2017

NOTE: "FAIR" INDICATES FEW OR NO CLOUDS BELOW 12,000 FEET WITH NO
SIGNIFICANT WEATHER AND/OR OBSTRUCTION TO VISIBILITY.

MIZ047>049-052>055-059>063-066>070-074>076-081>083-220900-
SOUTHEAST LOWER MICHIGAN

CITY           SKY/WX    TMP DP  RH WIND       PRES   REMARKS
ADRIAN         CLOUDY    72  68  87 SW10      29.91F
ALMA           PTCLDY    71  67  89 SW9       29.81F
ANN ARBOR      CLOUDY    72  70  93 S9        29.88F
BAD AXE        PTCLDY    70  62  76 S6        29.82F
CARO           CLOUDY    73  65  76 SW7       29.82F
DETROIT CITY   CLOUDY    76  70  82 SW15      29.87F
DETROIT        CLOUDY    75  71  87 S10       29.89F
FLINT          PTCLDY    73  67  81 S12       29.84F
GROSSE ILE     CLOUDY    76  70  81 SW12      29.88F
HILLSDALE      LGT RAIN  72  66  83 SW9       29.91S
HOWELL         CLOUDY    71  68  90 SW7       29.86F

CITY           SKY/WX    TMP DP  RH WIND       PRES   REMARKS
JACKSON        CLOUDY    73  68  84 S13       29.88F
LAMBERTVILLE   MOCLDY    73  68  83 SW9       29.90F
LANSING        CLOUDY    72  68  87 SW9       29.85F
LAPEER         FAIR      74  65  73 SW8       29.85F
MASON          MOCLDY    72  68  88 S3        29.86F
MONROE         CLOUDY    74  69  85 S7        29.89F
MT. CLEMENS    MOCLDY    76  70  81 SW9       29.85F
PONTIAC        CLOUDY    74  68  81 S8        29.86F
PORT HOPE        N/A     74  63  68 SW7       29.78F
PORT HURON     PTCLDY    75  70  83 S7        29.86F
TRI CITIES     PTCLDY    73  69  87 S10       29.80F
MIDLAND        FAIR      72  66  81 SW7       29.79F
TROY           CLOUDY    76  68  77 S9        29.88F
SAGINAW HB     MOCLDY    72  66  83 S14       29.80F
$$
MIZ043>046-050>051-056>058-064>065-071>073-077>080-220900-
SOUTHWEST LOWER MICHIGAN

CITY           SKY/WX    TMP DP  RH WIND       PRES   REMARKS
BATTLE CREEK   LGT RAIN  73  69  87 SW18      29.85F
BENTON HARBOR  CLOUDY    71  68  90 S10       29.85F
BIG RAPIDS     CLOUDY    72  66  83 SW8       29.80F
COLDWATER      HVY RAIN  72  71  97 W17G23    29.93R
FREMONT        CLOUDY    70  70 100 CALM      29.79F
HOLLAND        CLOUDY    73  68  84 SW16G22   29.83S
GRAND RAPIDS   CLOUDY    73  71  93 SW14      29.82F
IONIA          FAIR      72  69  90 SW12G18   29.82F
KALAMAZOO      LGT RAIN  72  67  84 SW16G25   29.87F
LUDINGTON      CLOUDY    71  69  93 SW6       29.77F
MARSHALL       LGT RAIN  72  72  98 SW10G16   29.87F
MOUNT PLEASANT MOCLDY    74  68  79 SW10      29.79F
MUSKEGON       CLOUDY    75  70  84 SW20G28   29.81S
SOUTH HAVEN    MOCLDY    73  68  86 S12G20    29.83F
$$
MIZ016>042-220900-
NORTHERN LOWER MICHIGAN

CITY           SKY/WX    TMP DP  RH WIND       PRES   REMARKS
ALPENA         PTCLDY    72  70  93 S6        29.75F
BEAVER ISLAND  DRIZZLE   69  69  99 SW9G17    29.71F
BELLAIRE       HVY RAIN  70  68  92 SW5       29.74F
CADILLAC       DRIZZLE   72  69  88 SW9       29.78F
CHARLEVOIX     LGT RAIN  70  70 100 SW9       29.75F
FRANKFORT      CLOUDY    73  71  93 W9G18     29.75F
GAYLORD        CLOUDY    70  66  87 SW14      29.76F
GRAYLING       LGT RAIN  71  66  86 S5        29.78F
HARBOR SPRINGS LGT RAIN  70  68  95 S8        29.71F
HOUGHTON LAKE  CLOUDY    72  67  84 SW9       29.79F
MANISTEE       CLOUDY    72  68  87 SW9       29.76F
OSCODA         PTCLDY    72  67  86 SW9       29.77F
PELLSTON       LGT RAIN  71  69  93 SW6       29.72F
ROGERS CITY    CLOUDY    69  68  94 S8        29.73F
TRAVERSE CITY  LGT RAIN  73  68  84 VRB6      29.72F
$$
MIZ007>008-015-220900-
EASTERN UPPER MICHIGAN

CITY           SKY/WX    TMP DP  RH WIND       PRES   REMARKS
KINROSS        CLOUDY    68  67  96 S5        29.69F FOG
MACKINAC ISLAN CLOUDY    69  69 100 S7        29.69F FOG
NEWBERRY       LGT RAIN  67  66  97 SW10      29.68F
S. S. MARIE    CLOUDY    69  67  93 S7        29.67F FOG
MUNISING         N/A     69  69 100 S7        29.66F
$$
MIZ004>006-011>014-085-220900-
CENTRAL UPPER MICHIGAN

CITY           SKY/WX    TMP DP  RH WIND       PRES   REMARKS
MANISTIQUE     LGT RAIN  68  62  80 CALM      29.69F
ESCANABA       MOCLDY    68  66  93 SW7       29.70F
MENOMINEE      CLOUDY    69  64  84 SW6       29.73F
SAWYER-GWINN   CLOUDY    64  64  97 SW8       29.70F
$$
MIZ001>003-009>011-084-220900-
WESTERN UPPER MICHIGAN

CITY           SKY/WX    TMP DP  RH WIND       PRES   REMARKS
IRON MOUNTAIN  CLOUDY    67  62  84 W8        29.70F
HOUGHTON       CLOUDY    56  53  90 NW13      29.74R
COPPER HARBOR    N/A     58  56  93 N13       29.71S
IRONWOOD       CLOUDY    56  55  97 NW6       29.81S
$$

ABBREVIATIONS USED IN REMARKS
   TC - TEMPERATURE IN CELSIUS
  WCI - WIND CHILL INDEX
   HX - HEAT INDEX
  VSB - VISIBILITY





USA.gov is the U.S. government's official web portal to all federal, state and local government web resources and services.